Home > Time Zones > World Clock > Weather > U.S.A. > Adak > Past weeks

Flag for U.S.A. Weather past 2 weeks in Adak, Alaska, U.S.A.

Now
39 °F

Passing clouds.


Feels Like: 32 °F
Forecast: 38 / 43 °F
Wind: 13 mph from Southwest

Location: Adak

Current Time: Apr 25, 2015 at 11:45:56 PM

Latest Report: Apr 25, 2015 at 11:16 PM


Visibility: 10 mi

Pressure: 30.26 "Hg

Humidity: 70%

Dew point: 30 °F

Location of AdakLocation

Historic Weather in Adak — Graph

°F

Adak temperature yesterday

Maximum temperature yesterday: 39 °F (at 10:16 AM)
Minimum temperature yesterday: 36 °F (at 12:36 AM)
Average temperature yesterday: 37 °F

Past Weeks' High & Low Weather Summary

 TemperatureHumidityPressure
High46 °F (Apr 22, 2:56 PM)87% (Apr 12, 10:16 PM)30.36 "Hg (Apr 12, 10:16 PM)
Low25 °F (Apr 12, 8:56 AM)44% (Apr 11, 3:36 PM)29.13 "Hg (Apr 13, 5:36 AM)
Average35 °F67%29.76 "Hg
* Reported Apr 10 10:16 PM — Apr 25 10:36 PM, Adak, Weather by CustomWeather, © 2015

Note: Actual official high and low records may vary slightly from our data, if they occured in-between our weather recording intervals... More about our weather records

Advertising

Adak weather history for previous 24 hours

 ConditionsComfort  
Time TempWeatherWind HumidityBarometerVisibility
10:36 PM
Sat, Apr 25
39 °FOvercast.15 mph70%30.27 "Hg10 mi
10:16 PM39 °FMostly cloudy.14 mph70%30.27 "Hg10 mi
9:56 PM39 °FOvercast.10 mph70%30.26 "Hg10 mi
9:36 PM39 °FOvercast.8 mph70%30.28 "Hg10 mi
9:16 PM39 °FOvercast.7 mph65%30.28 "Hg10 mi
8:56 PM41 °FOvercast.7 mph61%30.29 "Hg10 mi
8:36 PM41 °FOvercast.8 mph61%30.29 "Hg10 mi
8:16 PM43 °FPartly sunny.8 mph57%30.30 "Hg10 mi
7:56 PM43 °FScattered clouds.7 mph61%30.30 "Hg10 mi
7:36 PM43 °FScattered clouds.6 mph61%30.30 "Hg10 mi
7:16 PM43 °FSunny.10 mph57%30.31 "Hg10 mi
6:16 PM45 °FSunny.9 mph53%30.32 "Hg10 mi
5:56 PM43 °FPassing clouds.16 mph57%30.32 "Hg10 mi
5:36 PM43 °FPassing clouds.9 mph53%30.33 "Hg10 mi
5:16 PM45 °FSunny.15 mph53%30.34 "Hg10 mi
4:56 PM45 °FPassing clouds.14 mph53%30.34 "Hg10 mi
4:36 PM45 °FSunny.14 mph53%30.34 "Hg10 mi
4:16 PM45 °FSunny.13 mph53%30.34 "Hg10 mi
3:56 PM45 °FSunny.17 mph53%30.34 "Hg10 mi
3:36 PM45 °FSunny.14 mph53%30.34 "Hg10 mi
3:16 PM45 °FSunny.18 mph53%30.33 "Hg10 mi
2:56 PM45 °FSunny.24 mph53%30.33 "Hg10 mi
2:36 PM45 °FSunny.28 mph53%30.33 "Hg10 mi
2:16 PM45 °FSunny.22 mph53%30.33 "Hg10 mi
1:56 PM43 °FSunny.23 mph57%30.33 "Hg10 mi
1:36 PM43 °FSunny.24 mph57%30.34 "Hg10 mi
1:16 PM43 °FSunny.28 mph61%30.33 "Hg10 mi
12:16 PM43 °FOvercast.16 mph61%30.35 "Hg10 mi
11:56 AM43 °FOvercast.20 mph61%30.35 "Hg10 mi
11:36 AM39 °FOvercast.16 mph65%30.35 "Hg10 mi
11:16 AM39 °FOvercast.13 mph65%30.35 "Hg10 mi
10:56 AM39 °FOvercast.10 mph61%30.35 "Hg10 mi
10:36 AM37 °FOvercast.13 mph65%30.36 "Hg10 mi
10:16 AM37 °FOvercast.12 mph65%30.35 "Hg10 mi
9:56 AM37 °FOvercast.13 mph65%30.35 "Hg10 mi
9:36 AM37 °FOvercast.13 mph65%30.34 "Hg10 mi
9:16 AM37 °FOvercast.8 mph60%30.35 "Hg10 mi
8:56 AM37 °FOvercast.6 mph56%30.34 "Hg10 mi
8:36 AM37 °FOvercast.14 mph60%30.34 "Hg10 mi
8:16 AM37 °FOvercast.13 mph60%30.33 "Hg10 mi
7:56 AM37 °FOvercast.9 mph60%30.33 "Hg10 mi
7:36 AM37 °FMostly cloudy.13 mph60%30.33 "Hg10 mi
7:16 AM37 °FOvercast.14 mph56%30.33 "Hg10 mi
6:56 AM37 °FMostly cloudy.14 mph52%30.33 "Hg10 mi
6:36 AM36 °FMostly cloudy.14 mph56%30.33 "Hg10 mi
6:16 AM36 °FOvercast.18 mph60%30.32 "Hg10 mi
5:56 AM37 °FOvercast.17 mph60%30.32 "Hg10 mi
5:36 AM37 °FMostly cloudy.16 mph60%30.32 "Hg10 mi
5:16 AM37 °FMostly cloudy.17 mph52%30.31 "Hg10 mi
4:56 AM37 °FOvercast.16 mph52%30.31 "Hg10 mi
4:36 AM37 °FMostly cloudy.9 mph60%30.30 "Hg10 mi
4:16 AM36 °FMostly cloudy.13 mph70%30.30 "Hg10 mi
3:56 AM36 °FOvercast.12 mph65%30.30 "Hg10 mi
3:36 AM37 °FMostly cloudy.9 mph56%30.29 "Hg10 mi
3:16 AM37 °FMostly cloudy.15 mph56%30.29 "Hg10 mi
2:56 AM36 °FMostly cloudy.16 mph56%30.28 "Hg10 mi
2:36 AM36 °FMostly cloudy.18 mph65%30.28 "Hg10 mi
2:16 AM36 °FMostly cloudy.17 mph65%30.27 "Hg10 mi
1:56 AM36 °FMostly cloudy.15 mph60%30.26 "Hg10 mi
1:36 AM37 °FMostly cloudy.18 mph52%30.25 "Hg10 mi
1:16 AM36 °FOvercast.26 mph56%30.24 "Hg10 mi
12:56 AM36 °FMostly cloudy.22 mph56%30.24 "Hg10 mi
12:36 AM36 °FMostly cloudy.18 mph65%30.24 "Hg8 mi
12:16 AM36 °FMostly cloudy.23 mph56%30.24 "Hg10 mi
11:56 PM
Fri, Apr 24
36 °FMostly cloudy.28 mph56%30.23 "Hg10 mi
11:36 PM36 °FOvercast.28 mph60%30.22 "Hg10 mi
11:16 PM36 °FOvercast.25 mph56%30.21 "Hg10 mi
Weather by CustomWeather, © 2015

See weather overviewHow to use our weather pages